Terminal Aerodrome Forecast
Issued by NWS La Crosse, WI

Home | Current Version | Previous Version | Text Only | Print | Product List | Glossary On
Versions: 1 2 3 4 5 6 7 8 9 10 11 12 13 14 15 16 17 18 19 20 21 22 23 24 25 26 27 28 29 30 31 32 33 34 35 36 37 38 39 40 41 42 43 44 45 46 47
000
FTUS43 KARX 070520
TAFRST
TAF
KRST 070520Z 0706/0806 16014KT P6SM BKN100
     FM070900 16013KT P6SM BKN090 WS015/19045KT
     FM071500 19020G30KT P6SM -TSRA BKN060CB
     FM071800 19020G32KT 2SM TSRA BR BKN015CB
     FM080200 20015KT 5SM -SHRA BR BKN025=

USA.gov is the U.S. government's official web portal to all federal, state and local government web resources and services.